This demonstration page uses our WeatherBlox Daily Observations layout. Learn more.

Left ArrowRight Arrow

34.74481, -87.66753

Hourly Observations for June 28, 2022

Temp ( °F °C ) Dew Point ( °F °C ) Humidity (%) Winds ( mph kmh ) Pressure ( in mb ) Visibility ( mi km ) Precip ( " mm )
12:53 am 00:53 Clear 74 23.3 57 13.9 56 56 NNE 9 15 30.11 1020 10 16 0.00 0.00
1:53 am 01:53 Clear 73 22.8 57 13.9 57 57 NNE 12 19 30.10 1019 10 16 0.00 0.00
2:53 am 02:53 Clear 72 22.2 56 13.3 57 57 NE 12 19 30.09 1019 10 16 0.00 0.00
3:53 am 03:53 Clear 71 21.7 56 13.3 59 59 NE 9 15 30.10 1019 10 16 0.00 0.00
4:53 am 04:53 Clear 70 21.1 56 13.3 61 61 NE 8 13 30.11 1020 10 16 0.00 0.00
5:53 am 05:53 Sunny 70 21.1 55 12.8 59 59 ENE 7 11 30.12 1020 10 16 0.00 0.00
6:53 am 06:53 Sunny 72 22.2 56 13.3 57 57 NE 7 11 30.14 1021 10 16 0.00 0.00
7:53 am 07:53 Sunny 72 22.2 56 13.3 57 57 ENE 7 11 30.15 1021 10 16 0.00 0.00
8:53 am 08:53 Sunny 76 24.4 56 13.3 50 50 ENE 12 19 30.16 1021 10 16 0.00 0.00
9:53 am 09:53 Sunny 78 25.6 57 13.9 48 48 E 10 17 30.16 1021 10 16 0.00 0.00
10:53 am 10:53 Sunny 81 27.2 57 13.9 44 44 NNE 8 13 30.16 1021 10 16 0.00 0.00
11:53 am 11:53 Sunny 85 29.4 58 14.4 40 40 NNE 8 13 30.15 1021 10 16 0.00 0.00
12:53 pm 12:53 Sunny 89 31.7 55 12.8 31 31 VRB 5 7 30.14 1021 10 16 0.00 0.00
1:53 pm 13:53 Sunny 89 31.7 57 13.9 34 34 VRB 7 11 30.12 1020 10 16 0.00 0.00
2:53 pm 14:53 Sunny 90 32.2 54 12.2 29 29 NE 9 15 30.10 1019 10 16 0.00 0.00
3:53 pm 15:53 Sunny 92 33.3 52 11.1 26 26 NW 9 15 30.08 1019 10 16 0.00 0.00
4:53 pm 16:53 Sunny 91 32.8 51 10.6 26 26 NNW 9 15 30.06 1018 10 16 0.00 0.00
5:53 pm 17:53 Sunny 89 31.7 54 12.2 30 30 ENE 6 9 30.06 1018 10 16 0.00 0.00
6:53 pm 18:53 Sunny 89 31.7 55 12.8 31 31 NE 6 9 30.07 1018 10 16 0.00 0.00
7:53 pm 19:53 Sunny 83 28.3 54 12.2 37 37 ENE 5 7 30.08 1019 10 16 0.00 0.00
8:53 pm 20:53 Clear 80 26.7 56 13.3 44 44 N 5 7 30.09 1019 10 16 0.00 0.00
9:53 pm 21:53 Clear 79 26.1 58 14.4 49 49 NNE 9 15 30.10 1019 10 16 0.00 0.00
10:53 pm 22:53 Clear 77 25 57 13.9 50 50 N 6 9 30.13 1020 10 16 0.00 0.00
11:53 pm 23:53 Clear 75 23.9 57 13.9 54 54 NE 10 17 30.13 1020 10 16 0.00 0.00

Powered by AerisWeather